DW4152 Weather Reports


time (UTC)temp
C
wind
direction
speed
KPH
gust
KPH
rain 1hr
cm
rain 24hr
cm
rain mn
cm
humidity
%
barometer
mb
20240614114520 19 314 0.0 0.0 0.00 0.10 0.03 96 1014.0
20240614113019 18 314 0.0 0.0 0.00 0.10 0.03 97 1014.0
20240614111525 18 314 0.0 0.0 0.00 0.10 0.03 97 1013.8
20240614110016 18 314 0.0 0.0 0.00 0.10 0.03 97 1013.6
20240614104515 18 314 0.0 0.0 0.03 0.10 0.03 97 1013.4
20240614103014 18 314 0.0 0.0 0.03 0.10 0.03 97 1013.5
20240614101529 18 314 0.0 0.0 0.03 0.10 0.03 96 1013.4
20240614100010 18 314 0.0 0.0 0.03 0.10 0.03 96 1013.4
20240614094510 18 314 0.0 0.0 0.00 0.08 0.00 96 1013.2
20240614093009 18 314 0.0 0.0 0.00 0.08 0.00 96 1013.4
20240614091508 18 314 0.0 0.0 0.00 0.08 0.00 96 1013.3
20240614090007 18 314 0.0 0.0 0.00 0.08 0.00 95 1013.3
20240614084506 18 314 0.0 0.0 0.00 0.08 0.00 95 1013.6
20240614083007 18 314 0.0 0.0 0.00 0.08 0.00 95 1013.6
20240614081504 18 314 0.0 0.0 0.00 0.08 0.00 95 1013.6
20240614080003 19 314 0.0 0.0 0.00 0.08 0.00 94 1013.4
20240614074503 19 314 0.0 0.0 0.00 0.08 0.00 94 1013.6
20240614073000 19 314 0.0 0.0 0.00 0.08 0.00 94 1013.6
20240614071600 19 314 0.0 0.0 0.00 0.08 0.00 94 1013.7
20240614070100 19 314 0.0 0.0 0.00 0.08 0.00 93 1013.7
20240614064558 19 314 0.0 0.0 0.00 0.10 0.00 93 1013.6
20240614063058 20 314 0.0 0.0 0.00 0.10 0.00 92 1013.6
20240614061555 20 314 0.0 0.0 0.00 0.10 0.00 93 1013.5
20240614060101 20 314 0.0 0.0 0.00 0.10 0.00 91 1013.7
20240614054552 20 314 0.0 0.0 0.00 0.10 0.00 91 1013.7
20240614053049 20 314 0.0 0.0 0.00 0.10 0.00 90 1014.1
20240614051546 21 314 0.0 0.0 0.00 0.10 0.00 89 1014.1
20240614050103 21 314 0.0 0.0 0.00 0.10 0.00 88 1014.2
20240614044547 21 314 0.0 0.0 0.00 0.10 0.00 88 1014.4
20240614043040 21 314 0.0 0.0 0.00 0.10 0.00 87 1014.7
20240614041538 21 314 0.0 0.0 0.00 0.10 0.00 87 1014.6
20240614040036 21 314 0.0 0.0 0.00 0.10 0.00 87 1014.5
20240614034535 21 314 0.0 0.0 0.00 0.10 0.10 89 1014.5
20240614033037 21 314 0.0 0.0 0.00 0.10 0.10 89 1014.7
20240614031536 21 314 0.0 1.6 0.00 0.10 0.10 89 1014.8
20240614030040 22 319 0.0 0.0 0.00 0.10 0.10 89 1014.7
20240614024536 22 319 0.0 0.0 0.00 0.10 0.10 90 1014.8
20240614023039 22 319 0.0 0.0 0.00 0.10 0.10 88 1014.7
20240614021532 22 319 0.0 0.0 0.00 0.10 0.10 87 1014.5
20240614020053 22 319 0.0 0.0 0.00 0.10 0.10 86 1014.6
20240614014531 23 319 0.0 0.0 0.03 0.10 0.10 83 1014.4
20240614013037 23 319 0.0 0.0 0.03 0.10 0.10 80 1014.2
20240614011531 23 319 0.0 0.0 0.03 0.10 0.10 78 1014.1
20240614010030 24 319 0.0 0.0 0.03 0.10 0.10 75 1014.2
20240614004530 25 319 0.0 0.0 0.00 0.10 0.08 74 1014.1
20240614003029 25 319 0.0 0.0 0.00 0.10 0.08 73 1014.0
20240614001528 26 319 0.0 0.0 0.00 0.10 0.08 72 1014.1
20240614000029 26 319 0.0 0.0 0.00 0.10 0.08 71 1014.3
20240613234528 26 319 0.0 0.0 0.00 0.10 0.08 71 1014.2
20240613233031 27 319 0.0 0.0 0.00 0.10 0.08 68 1014.2
20240613231530 27 319 0.0 0.0 0.00 0.10 0.08 66 1014.2
20240613230026 27 319 0.0 0.0 0.00 0.10 0.08 63 1014.0
20240613224526 28 319 0.0 3.2 0.00 0.10 0.08 63 1014.0
20240613223026 28 319 0.0 0.0 0.00 0.10 0.08 63 1013.9
20240613221525 29 319 0.0 4.8 0.00 0.10 0.08 61 1013.7
20240613220026 30 272 0.0 3.2 0.00 0.10 0.08 58 1013.7
20240613214533 30 344 0.0 1.6 0.00 0.10 0.08 60 1013.9
20240613213022 30 228 0.0 3.2 0.00 0.10 0.08 59 1013.9
20240613211520 30 275 0.0 4.8 0.00 0.10 0.08 57 1013.9
20240613210122 30 312 0.0 0.0 0.00 0.10 0.08 63 1013.9
20240613204519 29 299 0.0 0.0 0.00 0.10 0.08 71 1014.1
20240613203018 29 299 0.0 0.0 0.00 0.10 0.08 68 1014.2
20240613201520 30 299 0.0 0.0 0.00 0.10 0.08 62 1014.4
20240613200027 30 299 0.0 0.0 0.00 0.10 0.08 61 1014.2
20240613194525 31 299 0.0 0.0 0.00 0.13 0.08 57 1014.4
20240613193020 32 298 0.0 4.8 0.00 0.13 0.08 52 1014.5
20240613191510 31 273 0.0 1.6 0.03 0.13 0.08 58 1014.7
20240613190010 29 240 0.0 0.0 0.03 0.13 0.08 65 1015.0
20240613184509 29 226 0.0 0.0 0.03 0.13 0.08 63 1015.2
20240613183011 30 225 0.0 0.0 0.00 0.10 0.05 64 1015.3
20240613181508 31 225 0.0 0.0 0.00 0.10 0.05 60 1015.4
20240613180008 31 248 0.0 0.0 0.00 0.10 0.05 60 1015.5
20240613174506 31 250 0.0 3.2 0.00 0.10 0.05 55 1015.6
20240613173004 31 209 0.0 8.0 0.00 0.10 0.05 60 1015.6
20240613171503 30 337 0.0 1.6 0.00 0.10 0.05 60 1015.6
20240613170059 30 52 0.0 1.6 0.00 0.10 0.05 58 1015.8
20240613164609 30 70 0.0 4.8 0.00 0.13 0.05 59 1015.8
20240613163103 30 217 0.0 4.8 0.00 0.13 0.05 63 1016.0
20240613161554 29 222 0.0 3.2 0.00 0.13 0.05 62 1016.2
20240613160049 29 219 0.0 0.0 0.00 0.13 0.05 66 1016.3
20240613154544 28 217 0.0 1.6 0.00 0.13 0.05 62 1016.5
20240613153043 28 216 0.0 0.0 0.00 0.13 0.05 67 1016.7
20240613151547 27 202 0.0 0.0 0.00 0.13 0.05 67 1016.8
20240613150036 27 245 0.0 0.0 0.00 0.13 0.05 66 1016.9
20240613144533 27 261 0.0 0.0 0.00 0.13 0.05 69 1016.8
20240613143028 26 261 0.0 0.0 0.03 0.13 0.05 72 1016.8
20240613141523 25 262 0.0 1.6 0.03 0.13 0.05 75 1016.7
20240613140020 25 257 0.0 1.6 0.03 0.13 0.05 83 1016.9
20240613134518 23 271 0.0 0.0 0.03 0.13 0.05 86 1017.0
20240613133010 22 271 0.0 0.0 0.00 0.10 0.03 89 1017.1
20240613131509 22 271 0.0 1.6 0.00 0.10 0.03 89 1017.3
20240613130003 22 304 0.0 0.0 0.00 0.10 0.03 91 1017.3
20240613124600 21 315 0.0 0.0 0.00 0.10 0.03 93 1017.3
20240613123054 21 319 0.0 0.0 0.00 0.10 0.03 95 1017.3
20240613121554 20 319 0.0 0.0 0.00 0.10 0.03 97 1017.2
20240613120052 20 319 0.0 0.0 0.00 0.10 0.03 98 1017.1